TimeEDT,TemperatureF,Dew PointF,Humidity,Sea Level PressureIn,VisibilityMPH,Wind Direction,Wind SpeedMPH,Gust SpeedMPH,PrecipitationIn,Events,Conditions,WindDirDegrees,DateUTC
12:52 AM,53.1,48.0,83,30.15,7.0,North,10.4,-,0.00,,Overcast,10,2012-10-09 04:52:00
1:21 AM,53.6,48.2,82,30.15,10.0,North,10.4,-,N/A,,Overcast,360,2012-10-09 05:21:00
1:52 AM,53.1,48.9,86,30.16,5.0,North,10.4,-,N/A,,Overcast,360,2012-10-09 05:52:00
2:04 AM,53.6,50.0,88,30.14,4.0,North,9.2,-,N/A,,Overcast,360,2012-10-09 06:04:00
2:52 AM,54.0,50.0,86,30.15,10.0,North,11.5,-,N/A,,Overcast,350,2012-10-09 06:52:00
2:59 AM,53.6,50.0,88,30.15,10.0,North,11.5,-,N/A,,Overcast,350,2012-10-09 06:59:00
3:52 AM,54.0,51.1,90,30.14,3.0,NNW,10.4,-,0.02,Rain,Light Rain,340,2012-10-09 07:52:00
4:06 AM,53.6,51.8,94,30.14,3.0,NNW,10.4,-,0.00,Rain,Light Rain,330,2012-10-09 08:06:00
4:52 AM,54.0,51.1,90,30.14,7.0,North,12.7,17.3,0.01,,Overcast,350,2012-10-09 08:52:00
5:14 AM,53.6,51.8,94,30.14,4.0,NW,8.1,-,N/A,,Overcast,320,2012-10-09 09:14:00
5:21 AM,53.6,50.0,88,30.14,3.0,NW,10.4,-,N/A,,Overcast,320,2012-10-09 09:21:00
5:23 AM,53.6,51.8,94,30.14,3.0,NW,9.2,-,0.00,Rain,Light Rain,320,2012-10-09 09:23:00
5:52 AM,52.0,50.0,93,30.14,3.0,NNW,10.4,-,0.00,Rain,Light Rain,330,2012-10-09 09:52:00
6:52 AM,53.1,51.1,93,30.14,2.0,NW,11.5,-,0.01,Rain,Light Rain,320,2012-10-09 10:52:00
7:52 AM,54.0,51.1,90,30.14,4.0,North,15.0,-,0.00,,Overcast,350,2012-10-09 11:52:00
8:52 AM,55.0,52.0,89,30.15,4.0,NNW,12.7,-,N/A,,Overcast,340,2012-10-09 12:52:00
9:52 AM,55.0,52.0,89,30.16,10.0,North,11.5,-,N/A,,Overcast,360,2012-10-09 13:52:00
10:52 AM,55.9,52.0,87,30.15,10.0,North,10.4,-,N/A,,Overcast,360,2012-10-09 14:52:00
11:08 AM,57.2,51.8,82,30.15,10.0,North,13.8,-,N/A,,Overcast,350,2012-10-09 15:08:00
11:52 AM,57.9,53.1,84,30.14,10.0,North,10.4,-,N/A,,Mostly Cloudy,350,2012-10-09 15:52:00
12:40 PM,59.0,53.6,82,30.13,10.0,North,11.5,-,N/A,,Overcast,350,2012-10-09 16:40:00
12:52 PM,59.0,53.1,81,30.13,10.0,North,9.2,-,N/A,,Overcast,350,2012-10-09 16:52:00
1:52 PM,61.0,54.0,78,30.10,10.0,NNW,11.5,-,N/A,,Overcast,340,2012-10-09 17:52:00
2:52 PM,62.1,54.0,75,30.09,10.0,North,8.1,-,N/A,,Overcast,350,2012-10-09 18:52:00
3:52 PM,61.0,54.0,78,30.09,10.0,North,8.1,-,N/A,,Overcast,350,2012-10-09 19:52:00
4:09 PM,60.8,53.6,77,30.08,4.0,North,9.2,-,0.00,Rain,Light Rain,360,2012-10-09 20:09:00
4:27 PM,60.8,55.4,82,30.08,5.0,North,10.4,-,0.00,Rain,Light Rain,350,2012-10-09 20:27:00
4:52 PM,60.1,55.0,83,30.08,4.0,North,9.2,-,0.00,,Light Drizzle,350,2012-10-09 20:52:00
5:39 PM,60.8,55.4,82,30.08,5.0,NW,6.9,-,0.00,,Overcast,310,2012-10-09 21:39:00
5:52 PM,59.0,55.0,87,30.09,5.0,NNW,6.9,-,0.01,Rain,Light Rain,330,2012-10-09 21:52:00
6:30 PM,59.0,55.4,88,30.08,6.0,NW,8.1,-,0.00,,Overcast,320,2012-10-09 22:30:00
6:52 PM,59.0,55.9,90,30.08,6.0,NNW,5.8,-,0.00,,Overcast,330,2012-10-09 22:52:00
7:52 PM,57.9,55.0,90,30.08,5.0,NW,9.2,-,N/A,,Overcast,320,2012-10-09 23:52:00
8:52 PM,57.9,55.0,90,30.08,6.0,NW,8.1,-,N/A,,Overcast,310,2012-10-10 00:52:00
9:52 PM,57.9,55.0,90,30.08,6.0,NW,6.9,-,N/A,,Overcast,320,2012-10-10 01:52:00
10:52 PM,59.0,55.9,90,30.06,7.0,NNW,5.8,-,N/A,,Overcast,340,2012-10-10 02:52:00
11:52 PM,60.1,55.9,86,30.05,9.0,NNW,4.6,-,N/A,,Overcast,330,2012-10-10 03:52:00